Location: General Nathan Twining Observatory
(34.5931°N, 106.8201°W)
Time: 12:39:58
(UTC-06:00)

COSMO-SKYMED 1 - Pass Details

Date: 20 September 2017
Orbit: 621 x 623 km, 97.9° (Epoch: 18 October)

Event Time Altitude Azimuth Distance (km) Brightness Sun altitude
Rises 19:27:51 0° 5° (N) 2,906 6.0 -5.2°
Reaches altitude 10° 19:30:05 10° 1° (N) 1,995 5.2 -5.7°
Maximum altitude 19:34:17 51° 286° (WNW) 786 3.7 -6.6°
Drops below altitude 10° 19:38:28 10° 210° (SSW) 1,982 5.5 -7.4°
Sets 19:40:41 0° 205° (SSW) 2,884 6.3 -7.9°
